Weather Service Report


532 
ASUS45 KBOI 230710
RWRID 

IDAHO REGIONAL WEATHER ROUNDUP
NATIONAL WEATHER SERVICE BOISE ID
100 AM MDT THU SEP 23 2021

NOTE: "FAIR" INDICATES FEW OR NO CLOUDS BELOW 12000 FEET
WITH NO SIGNIFICANT WEATHER AND/OR OBSTRUCTIONS TO VISIBILITY

IDZ012-014-230800-
SOUTHWEST IDAHO

  
CITY           SKY/WX    TMP DP  RH WIND       PRES   REMARKS
BOISE          CLEAR     62  41  46 W12       30.12R HAZE             
CALDWELL       MOCLDY    60  44  55 W15       30.14R                  
MOUNTAIN HOME  CLEAR     59  44  57 NW13      30.10R                  
$$

IDZ016-017-230800-
SOUTHCENTRAL IDAHO

  
CITY           SKY/WX    TMP DP  RH WIND       PRES   REMARKS
BURLEY         MOCLDY    59  42  53 S8        30.10S                  
JEROME         MOCLDY    62  43  49 SW6       30.13R                  
TWIN FALLS     MOCLDY    62  38  40 W10       30.13R                  
$$

IDZ019>023-230800-
SOUTHEAST IDAHO

  
CITY           SKY/WX    TMP DP  RH WIND       PRES   REMARKS
IDAHO FALLS    MOCLDY    58  32  37 SW10      30.14R                  
POCATELLO      PTCLDY    55  32  41 SW9       30.15R                  
REXBURG        PTCLDY    49  37  63 CALM      30.13R                  
$$

IDZ006-010-011-018-031-032-230800-
CENTRAL IDAHO MOUNTAINS

  
CITY           SKY/WX    TMP DP  RH WIND       PRES   REMARKS
MCCALL         CLEAR     48  40  73 N6        30.21R                  
HAILEY         MOCLDY    54  41  62 W9        30.20R                  
STANLEY          N/A     42  36  79 CALM      30.27R                  
SALMON         MOCLDY    61  37  41 SE6       30.16R                  
CHALLIS        PTCLDY    50  34  54 VRB3      30.19R                  
$$

IDZ002-004-006-007-026-230800-
NORTHERN IDAHO

  
CITY           SKY/WX    TMP DP  RH WIND       PRES   REMARKS
LEWISTON       CLEAR     65  40  39 SW6       30.14R                  
LOWELL           N/A     51  47  86 CALM      30.19R                  
COEUR D'ALENE  MOCLDY    57  44  62 S8        30.15R                  
MULLAN PASS    CLEAR     45  34  65 N5        30.23R                  
$$
  

Return to Home page


Western Regional Climate Center, wrcc@dri.edu